FW3819 Weather Reports


Display with metric or nautical units.
time (UTC)temp
F
wind
direction
speed
MPH
gust
MPH
rain 1hr
in
rain 24hr
in
rain mn
in
humidity
%
barometer
mb
20260901230247 92 178 3.0 7.0 0.00 0.00 0.00 57 1015.3
20260901230047 92 180 2.0 7.0 0.00 0.00 0.00 57 1015.4
20260901225247 92 188 2.0 5.0 0.00 0.00 0.00 55 1015.4
20260901224746 93 171 2.0 5.0 0.00 0.00 0.00 56 1015.3
20260901224248 93 205 2.0 5.0 0.00 0.00 0.00 56 1015.2
20260901223742 93 171 2.0 5.0 0.00 0.00 0.00 55 1015.2
20260901223241 93 185 2.0 8.0 0.00 0.00 0.00 54 1015.2
20260901222742 93 171 2.0 8.0 0.00 0.00 0.00 54 1015.2
20260901222539 94 222 2.0 5.0 0.00 0.00 0.00 54 1015.2
20260901221742 94 196 2.0 5.0 0.00 0.00 0.00 54 1015.3
20260901221242 95 194 2.0 5.0 0.00 0.00 0.00 53 1015.3
20260901220744 95 171 2.0 5.0 0.00 0.00 0.00 53 1015.2
20260901220242 95 188 2.0 7.0 0.00 0.00 0.00 52 1015.3
20260901215743 96 178 2.0 8.0 0.00 0.00 0.00 52 1015.3
20260901215236 96 188 2.0 8.0 0.00 0.00 0.00 51 1015.4
20260901214737 96 162 1.0 5.0 0.00 0.00 0.00 54 1015.5
20260901214236 96 162 2.0 7.0 0.00 0.00 0.00 51 1015.5
20260901213737 96 171 2.0 7.0 0.00 0.00 0.00 53 1015.5
20260901213235 96 188 2.0 7.0 0.00 0.00 0.00 51 1015.5
20260901212733 96 171 2.0 7.0 0.00 0.00 0.00 53 1015.5
20260901212235 95 152 1.0 7.0 0.00 0.00 0.00 53 1015.5
20260901211734 95 234 1.0 4.0 0.00 0.00 0.00 59 1015.5
20260901211231 96 100 2.0 5.0 0.00 0.00 0.00 53 1015.5
20260901210730 96 184 2.0 7.0 0.00 0.00 0.00 52 1015.5
20260901210232 96 185 3.0 9.0 0.00 0.00 0.00 52 1015.5
20260901205730 95 135 2.0 9.0 0.00 0.00 0.00 51 1015.5
20260901205522 96 265 2.0 8.0 0.00 0.00 0.00 52 1015.6
20260901204728 96 210 2.0 7.0 0.00 0.00 0.00 51 1015.7
20260901204231 96 188 3.0 7.0 0.00 0.00 0.00 52 1015.6
20260901203731 95 194 2.0 8.0 0.00 0.00 0.00 51 1015.6
20260901203524 95 188 3.0 9.0 0.00 0.00 0.00 51 1015.7
20260901202730 95 120 3.0 9.0 0.00 0.00 0.00 52 1015.7
20260901202230 95 171 3.0 9.0 0.00 0.00 0.00 54 1015.8
20260901201731 96 307 3.0 9.0 0.00 0.00 0.00 53 1015.9
20260901201230 95 248 3.0 9.0 0.00 0.00 0.00 54 1015.9
20260901200732 96 270 3.0 8.0 0.00 0.00 0.00 53 1016.0
20260901200231 95 185 2.0 8.0 0.00 0.00 0.00 52 1016.0
20260901195732 96 234 3.0 9.0 0.00 0.00 0.00 53 1016.0
20260901195230 95 326 3.0 9.0 0.00 0.00 0.00 53 1016.2
20260901194730 96 225 2.0 5.0 0.00 0.00 0.00 55 1016.2
20260901194231 95 249 2.0 7.0 0.00 0.00 0.00 55 1016.1
20260901193731 94 234 3.0 9.0 0.00 0.00 0.00 55 1016.2
20260901193232 94 185 3.0 9.0 0.00 0.00 0.00 54 1016.3
20260901192828 95 285 2.0 5.0 0.00 0.00 0.00 55 1016.3
20260901192810 95 191 2.0 8.0 0.00 0.00 0.00 53 1016.3
20260901191730 95 143 3.0 19.0 0.00 0.00 0.00 54 1016.4
20260901191230 95 156 3.0 19.0 0.00 0.00 0.00 53 1016.5
20260901190729 96 256 2.0 11.0 0.00 0.00 0.00 52 1016.6
20260901190229 96 205 4.0 11.0 0.00 0.00 0.00 51 1016.7
20260901185730 96 283 4.0 11.0 0.00 0.00 0.00 52 1016.8
20260901185228 95 271 4.0 12.0 0.00 0.00 0.00 53 1016.8
20260901184731 94 237 4.0 12.0 0.00 0.00 0.00 51 1016.8
20260901184229 95 251 4.0 14.0 0.00 0.00 0.00 51 1016.8
20260901183729 95 198 4.0 14.0 0.00 0.00 0.00 52 1016.9
20260901183231 95 273 3.0 12.0 0.00 0.00 0.00 52 1016.8
20260901182730 95 0 2.0 11.0 0.00 0.00 0.00 54 1016.8
20260901182230 96 274 2.0 11.0 0.00 0.00 0.00 52 1016.7
20260901181728 96 210 2.0 5.0 0.00 0.00 0.00 55 1016.7
20260901181509 95 260 2.0 7.0 0.00 0.00 0.00 53 1016.7
20260901180729 94 279 2.0 7.0 0.00 0.00 0.00 55 1016.7
20260901180526 94 217 3.0 11.0 0.00 0.00 0.00 54 1016.7
20260901175731 94 267 3.0 14.0 0.00 0.00 0.00 54 1016.7
20260901175229 93 48 3.0 14.0 0.00 0.00 0.00 54 1016.7
20260901174729 94 248 4.0 11.0 0.00 0.00 0.00 57 1016.9
20260901174524 93 215 4.0 11.0 0.00 0.00 0.00 55 1016.8
20260901173729 93 217 3.0 11.0 0.00 0.00 0.00 56 1016.9
20260901173230 93 215 3.0 11.0 0.00 0.00 0.00 54 1016.9
20260901172729 94 196 3.0 11.0 0.00 0.00 0.00 54 1016.8
20260901172324 94 191 2.0 9.0 0.00 0.00 0.00 55 1016.8
20260901172306 94 15 2.0 8.0 0.00 0.00 0.00 55 1016.8
20260901171229 94 326 2.0 9.0 0.00 0.00 0.00 59 1016.9
20260901170729 93 268 3.0 12.0 0.00 0.00 0.00 57 1016.8
20260901170231 93 178 3.0 14.0 0.00 0.00 0.00 56 1016.9
20260901170029 93 217 3.0 14.0 0.00 0.00 0.00 57 1017.0
20260901165230 93 54 2.0 11.0 0.00 0.00 0.00 57 1017.1
20260901164730 93 0 2.0 8.0 0.00 0.00 0.00 58 1017.3
20260901164229 92 11 2.0 9.0 0.00 0.00 0.00 58 1017.3
20260901163730 92 241 3.0 12.0 0.00 0.00 0.00 61 1017.3
20260901163229 93 203 3.0 12.0 0.00 0.00 0.00 57 1017.4
20260901162729 93 284 3.0 8.0 0.00 0.00 0.00 56 1017.3
20260901162228 93 284 3.0 9.0 0.00 0.00 0.00 58 1017.3
20260901161730 93 100 3.0 9.0 0.00 0.00 0.00 57 1017.5
20260901161230 93 326 2.0 7.0 0.00 0.00 0.00 57 1017.5
20260901160730 92 178 1.0 7.0 0.00 0.00 0.00 59 1017.5
20260901160229 90 152 2.0 9.0 0.00 0.00 0.00 64 1017.6
20260901155730 89 188 2.0 9.0 0.00 0.00 0.00 65 1017.8
20260901155231 88 178 2.0 8.0 0.00 0.00 0.00 65 1017.9
20260901154731 87 117 2.0 8.0 0.00 0.00 0.00 68 1017.9
20260901154229 87 175 2.0 8.0 0.00 0.00 0.00 69 1018.0
20260901154018 86 187 1.0 4.0 0.00 0.00 0.00 70 1018.0
20260901153231 86 89 1.0 4.0 0.00 0.00 0.00 71 1018.1
20260901152730 85 188 1.0 5.0 0.00 0.00 0.00 71 1018.1
20260901152229 85 162 2.0 8.0 0.00 0.00 0.00 71 1018.1
20260901151728 85 249 2.0 8.0 0.00 0.00 0.00 72 1018.3
20260901151230 85 185 2.0 7.0 0.00 0.00 0.00 74 1018.2
20260901150728 84 188 2.0 8.0 0.00 0.00 0.00 74 1018.1
20260901150229 84 171 2.0 8.0 0.00 0.00 0.00 75 1018.0
20260901145729 83 218 2.0 5.0 0.00 0.00 0.00 76 1018.1
20260901145228 83 192 2.0 5.0 0.00 0.00 0.00 77 1018.1
20260901144731 82 100 1.0 5.0 0.00 0.00 0.00 80 1018.2
20260901144229 82 143 1.0 5.0 0.00 0.00 0.00 80 1018.1
20260901143730 81 255 1.0 5.0 0.00 0.00 0.00 81 1018.2
20260901143230 80 129 1.0 7.0 0.00 0.00 0.00 83 1018.2
20260901142729 80 54 2.0 7.0 0.00 0.00 0.00 84 1018.2
20260901142230 80 218 1.0 3.0 0.00 0.00 0.00 85 1018.2
20260901141729 79 234 1.0 3.0 0.00 0.00 0.00 86 1018.2
20260901141229 79 234 2.0 5.0 0.00 0.00 0.00 87 1018.2
20260901140729 78 198 2.0 5.0 0.00 0.00 0.00 88 1018.1
20260901140229 78 180 1.0 5.0 0.00 0.00 0.00 90 1018.1
20260901140030 77 143 1.0 4.0 0.00 0.00 0.00 92 1018.2
20260901135230 77 121 1.0 4.0 0.00 0.00 0.00 93 1018.3
20260901134730 77 143 1.0 4.0 0.00 0.00 0.00 93 1018.2
20260901134229 76 143 1.0 4.0 0.00 0.00 0.00 94 1018.2
20260901133732 76 143 1.0 5.0 0.00 0.00 0.00 94 1018.2
20260901133229 76 185 1.0 5.0 0.00 0.00 0.00 95 1018.3
20260901132729 76 143 1.0 3.0 0.00 0.00 0.00 95 1018.3
20260901132231 76 158 1.0 3.0 0.00 0.00 0.00 95 1018.2
20260901132029 76 100 1.0 3.0 0.00 0.00 0.00 95 1018.3
20260901131229 76 155 0.0 1.0 0.00 0.00 0.00 95 1018.4
20260901130730 75 100 0.0 1.0 0.00 0.00 0.00 95 1018.4
20260901130229 75 117 0.0 1.0 0.00 0.00 0.00 95 1018.3
20260901125730 75 143 0.0 1.0 0.00 0.00 0.00 95 1018.4
20260901125230 75 54 0.0 1.0 0.00 0.00 0.00 95 1018.4
20260901124730 75 54 0.0 1.0 0.00 0.00 0.00 95 1018.6
20260901124229 75 296 0.0 3.0 0.00 0.00 0.00 95 1018.5
20260901123731 75 143 0.0 3.0 0.00 0.00 0.00 95 1018.6
20260901123522 74 54 0.0 3.0 0.00 0.00 0.00 95 1018.7
20260901123012 74 296 1.0 4.0 0.00 0.00 0.00 95 1018.7
20260901122220 74 11 1.0 4.0 0.00 0.00 0.00 95 1018.7
20260901121721 74 289 1.0 4.0 0.00 0.00 0.00 95 1018.7
20260901121514 74 279 0.0 3.0 0.00 0.00 0.00 95 1018.7
20260901120720 74 326 0.0 3.0 0.00 0.00 0.00 95 1018.6
20260901120507 73 100 0.0 3.0 0.00 0.00 0.00 95 1018.6
20260901115718 73 260 0.0 1.0 0.00 0.00 0.00 95 1018.4
20260901115219 73 125 0.0 1.0 0.00 0.00 0.00 95 1018.3
20260901114716 73 54 0.0 1.0 0.00 0.00 0.00 94 1018.2
20260901114311 73 279 0.0 1.0 0.00 0.00 0.00 94 1018.3
20260901114253 73 100 0.0 1.0 0.00 0.00 0.00 94 1018.3
20260901113216 73 234 0.0 1.0 0.00 0.00 0.00 94 1018.1
20260901113009 73 82 0.0 1.0 0.00 0.00 0.00 94 1018.1
20260901112214 73 326 0.0 1.0 0.00 0.00 0.00 94 1018.1
20260901111715 73 11 0.0 1.0 0.00 0.00 0.00 94 1018.1
20260901111214 73 54 0.0 1.0 0.00 0.00 0.00 94 1018.2
20260901110714 73 54 0.0 1.0 0.00 0.00 0.00 94 1018.2
20260901110503 73 54 0.0 1.0 0.00 0.00 0.00 94 1018.1
20260901105712 73 11 0.0 1.0 0.00 0.00 0.00 94 1018.2
20260901105214 72 100 0.0 1.0 0.00 0.00 0.00 94 1018.2
20260901104710 72 54 0.0 1.0 0.00 0.00 0.00 94 1018.1
20260901104208 72 11 0.0 1.0 0.00 0.00 0.00 94 1018.2
20260901103711 72 11 0.0 0.0 0.00 0.00 0.00 94 1018.1
20260901103210 72 326 0.0 1.0 0.00 0.00 0.00 94 1018.1
20260901102708 72 11 0.0 3.0 0.00 0.00 0.00 94 1018.0
20260901102209 72 11 0.0 3.0 0.00 0.00 0.00 94 1017.9
20260901101710 72 11 0.0 3.0 0.00 0.00 0.00 94 1017.9
20260901101209 73 54 0.0 3.0 0.00 0.00 0.00 94 1018.0
20260901100711 73 54 0.0 3.0 0.00 0.00 0.00 94 1017.9
20260901100209 73 28 0.0 1.0 0.00 0.00 0.00 94 1017.9
20260901095709 72 11 0.0 3.0 0.00 0.00 0.00 94 1017.8
20260901095208 72 54 0.0 3.0 0.00 0.00 0.00 94 1017.8
20260901094959 72 11 0.0 3.0 0.00 0.00 0.00 94 1017.9
20260901094208 72 296 0.0 3.0 0.00 0.00 0.00 94 1017.8
20260901093711 73 11 0.0 1.0 0.00 0.00 0.00 94 1017.8
20260901093207 73 100 0.0 1.0 0.00 0.00 0.00 94 1017.8
20260901092707 73 143 0.0 1.0 0.00 0.00 0.00 94 1017.9
20260901092208 73 54 0.0 3.0 0.00 0.00 0.00 93 1017.9
20260901091702 73 37 0.0 3.0 0.00 0.00 0.00 93 1018.1
20260901091202 73 54 0.0 1.0 0.00 0.00 0.00 93 1018.1
20260901090703 73 100 0.0 1.0 0.00 0.00 0.00 93 1018.2
20260901090201 73 54 0.0 1.0 0.00 0.00 0.00 93 1018.1
20260901085702 73 28 0.0 1.0 0.00 0.00 0.00 93 1018.1
20260901085204 73 37 0.0 1.0 0.00 0.00 0.00 93 1018.1
20260901084702 73 54 0.0 1.0 0.00 0.00 0.00 93 1018.1
20260901084202 73 54 0.0 0.0 0.00 0.00 0.00 93 1018.0
20260901083701 73 54 0.0 1.0 0.00 0.00 0.00 93 1018.0
20260901083204 73 11 0.0 1.0 0.00 0.00 0.00 93 1018.1
20260901082702 73 54 0.0 1.0 0.00 0.00 0.00 93 1018.0
20260901082200 73 100 0.0 1.0 0.00 0.00 0.00 93 1018.1
20260901081701 73 143 0.0 1.0 0.00 0.00 0.00 93 1018.1
20260901081201 73 143 0.0 1.0 0.00 0.00 0.00 93 1018.0
20260901080702 73 54 0.0 1.0 0.00 0.00 0.00 93 1018.0
20260901080204 73 234 0.0 1.0 0.00 0.00 0.00 93 1017.9
20260901075701 73 54 0.0 1.0 0.00 0.00 0.00 93 1017.9
20260901075203 74 54 0.0 1.0 0.00 0.00 0.00 93 1018.0
20260901074702 74 54 0.0 1.0 0.00 0.00 0.00 93 1017.9
20260901074203 74 11 0.0 1.0 0.00 0.00 0.00 93 1017.9
20260901073703 74 54 0.0 1.0 0.00 0.00 0.00 93 1017.9
20260901073201 74 100 0.0 1.0 0.00 0.00 0.00 93 1018.0
20260901072956 74 234 0.0 1.0 0.00 0.00 0.00 93 1018.1
20260901072201 74 234 0.0 1.0 0.00 0.00 0.00 93 1018.2
20260901071703 74 11 0.0 1.0 0.00 0.00 0.00 93 1018.2
20260901071202 74 82 0.0 1.0 0.00 0.00 0.00 93 1018.3
20260901070702 74 82 0.0 1.0 0.00 0.00 0.00 93 1018.2
20260901070203 74 82 0.0 1.0 0.00 0.00 0.00 93 1018.2
20260901065702 74 82 0.0 1.0 0.00 0.00 0.00 93 1018.3
20260901065201 74 54 0.0 1.0 0.00 0.00 0.00 93 1018.3
20260901064701 74 11 0.0 1.0 0.00 0.00 0.00 93 1018.5
20260901064203 74 100 0.0 1.0 0.00 0.00 0.00 93 1018.4
20260901063755 74 279 0.0 1.0 0.00 0.00 0.00 92 1018.7
20260901063736 74 54 0.0 1.0 0.00 0.00 0.00 92 1018.6
20260901062928 74 54 0.0 1.0 0.00 0.00 0.00 92 1018.6
20260901062201 74 143 0.0 1.0 0.00 0.00 0.00 92 1018.6
20260901061702 74 11 0.0 1.0 0.00 0.00 0.00 92 1018.7
20260901061204 74 11 0.0 0.0 0.00 0.00 0.00 92 1018.7
20260901060702 74 54 0.0 0.0 0.00 0.00 0.00 92 1018.7
20260901060203 74 54 0.0 0.0 0.00 0.00 0.00 92 1018.6
20260901055757 74 54 0.0 1.0 0.00 0.00 0.00 92 1018.7
20260901055742 74 54 0.0 0.0 0.00 0.00 0.00 92 1018.6
20260901055040 74 54 0.0 0.0 0.00 0.00 0.00 92 1018.9
20260901055033 74 100 0.0 1.0 0.00 0.00 0.00 92 1018.7
20260901053702 74 54 0.0 0.0 0.00 0.00 0.00 92 1019.0
20260901053202 74 234 0.0 1.0 0.00 0.00 0.00 92 1019.0
20260901052701 74 11 0.0 1.0 0.00 0.00 0.00 92 1019.0
20260901052201 74 187 0.0 1.0 0.00 0.00 0.00 92 1019.1
20260901051702 74 11 0.0 0.0 0.00 0.00 0.00 92 1019.0
20260901051201 74 100 0.0 1.0 0.00 0.00 0.00 92 1019.2
20260901050701 74 54 0.0 1.0 0.00 0.00 0.00 92 1019.1
20260901050155 74 54 0.0 1.0 0.00 0.00 0.00 92 1019.2
20260901045649 74 100 0.0 1.0 0.00 0.00 0.00 92 1019.2
20260901045439 74 54 0.0 1.0 0.00 0.00 0.00 91 1019.3
20260901044637 74 117 0.0 1.0 0.00 0.00 0.00 91 1019.2
20260901044137 74 11 0.0 1.0 0.00 0.00 0.00 91 1019.4
20260901043635 75 234 0.0 1.0 0.00 0.00 0.00 91 1019.4
20260901043429 75 54 0.0 0.0 0.00 0.00 0.00 91 1019.4
20260901042637 75 54 0.0 0.0 0.00 0.00 0.00 91 1019.5
20260901042132 75 11 0.0 0.0 0.00 0.00 0.00 91 1019.6
20260901041630 75 54 0.0 1.0 0.00 0.00 0.00 91 1019.7
20260901041130 75 100 0.0 1.0 0.00 0.00 0.00 91 1019.7
20260901040629 75 54 0.0 1.0 0.00 0.00 0.00 91 1019.6
20260901040131 75 279 0.0 1.0 0.00 0.00 0.00 91 1019.6
20260901035632 75 234 0.0 1.0 0.00 0.00 0.00 91 1019.7
20260901035131 75 143 0.0 1.0 0.00 0.00 0.00 91 1019.8
20260901034631 75 54 0.0 1.0 0.00 0.00 0.00 91 1019.7
20260901034129 75 54 0.0 1.0 0.00 0.00 0.00 91 1019.8
20260901033630 75 100 0.0 1.0 0.00 0.00 0.00 91 1019.7
20260901033227 75 11 0.0 1.0 0.00 0.00 0.00 90 1019.6
20260901033209 75 100 0.0 1.0 0.00 0.00 0.00 90 1019.7
20260901032130 75 54 0.0 1.0 0.00 0.00 0.00 90 1019.7
20260901031630 76 54 0.0 1.0 0.00 0.00 0.00 90 1019.7
20260901031126 76 11 0.0 1.0 0.00 0.00 0.00 90 1019.8
20260901030700 76 234 0.0 1.0 0.00 0.00 0.00 90 1019.8
20260901030644 76 11 0.0 0.0 0.00 0.00 0.00 90 1019.8
20260901025658 76 11 0.0 3.0 0.00 0.00 0.00 90 1019.7
20260901025640 76 54 0.0 1.0 0.00 0.00 0.00 90 1019.7
20260901024604 76 54 0.0 3.0 0.00 0.00 0.00 90 1019.8
20260901024104 76 82 0.0 1.0 0.00 0.00 0.00 89 1019.8
20260901023605 76 100 0.0 1.0 0.00 0.00 0.00 89 1019.9
20260901023105 76 11 0.0 0.0 0.00 0.00 0.00 90 1019.9
20260901022604 76 11 0.0 1.0 0.00 0.00 0.00 89 1019.9
20260901022356 76 11 0.0 1.0 0.00 0.00 0.00 89 1019.8
20260901021602 77 279 0.0 1.0 0.00 0.00 0.00 89 1019.7
20260901021102 77 117 0.0 1.0 0.00 0.00 0.00 89 1019.7
20260901020602 77 143 0.0 1.0 0.00 0.00 0.00 89 1019.7
20260901020104 77 143 1.0 1.0 0.00 0.00 0.00 89 1019.5
20260901015601 77 100 1.0 1.0 0.00 0.00 0.00 89 1019.5
20260901015103 77 54 0.0 1.0 0.00 0.00 0.00 88 1019.7
20260901014902 78 54 0.0 1.0 0.00 0.00 0.00 88 1019.6
20260901014353 78 54 0.0 1.0 0.00 0.00 0.00 88 1019.6
20260901013602 78 110 0.0 1.0 0.00 0.00 0.00 88 1019.5
20260901013102 78 117 0.0 1.0 0.00 0.00 0.00 87 1019.4
20260901012601 78 117 0.0 1.0 0.00 0.00 0.00 87 1019.4
20260901012101 78 100 0.0 1.0 0.00 0.00 0.00 87 1019.5
20260901011601 78 54 0.0 1.0 0.00 0.00 0.00 87 1019.5
20260901011102 78 54 0.0 1.0 0.00 0.00 0.00 87 1019.5
20260901010657 79 54 0.0 0.0 0.00 0.00 0.00 87 1019.5
20260901010637 78 11 0.0 1.0 0.00 0.00 0.00 87 1019.5
20260901005602 79 11 0.0 3.0 0.00 0.00 0.00 86 1019.4
20260901005103 79 143 0.0 3.0 0.00 0.00 0.00 86 1019.4
20260901004601 79 69 0.0 1.0 0.00 0.00 0.00 86 1019.3
20260901004101 80 54 0.0 1.0 0.00 0.00 0.00 85 1019.2
20260901003602 80 100 0.0 1.0 0.00 0.00 0.00 85 1019.2
20260901003101 80 54 0.0 1.0 0.00 0.00 0.00 85 1019.2
20260901002952 80 82 0.0 1.0 0.00 0.01 0.00 84 1019.1
20260901002640 80 54 0.0 1.0 0.00 0.01 0.00 84 1019.1
20260901001602 81 82 0.0 1.0 0.00 0.01 0.00 83 1019.1
20260901001104 81 54 0.0 1.0 0.00 0.02 0.00 83 1019.1
20260901000603 81 100 0.0 1.0 0.00 0.04 0.00 82 1019.2
20260901000103 82 82 0.0 1.0 0.00 0.14 0.00 82 1019.3
20260831235854 82 116 0.0 1.0 0.00 0.37 0.00 81 1019.2
20260831235356 82 234 0.0 1.0 0.00 0.56 0.00 81 1019.1
20260831234604 82 100 0.0 1.0 0.00 0.80 0.00 81 1019.1
20260831234102 83 11 0.0 1.0 0.00 0.98 0.00 80 1019.1
20260831233602 83 54 0.0 1.0 0.00 1.09 0.00 80 1019.0
20260831233102 83 54 0.0 1.0 0.00 1.18 0.00 79 1019.0
20260831232603 83 100 0.0 1.0 0.00 1.22 0.00 80 1019.1
20260831232102 84 11 0.0 1.0 0.00 1.23 0.00 80 1019.2
20260831231854 84 234 0.0 1.0 0.00 1.23 0.00 79 1019.1
20260831231103 84 11 0.0 1.0 0.00 1.23 0.00 78 1019.1
20260831230604 84 234 0.0 1.0 0.00 1.23 0.00 78 1019.0